Time,TemperatureF,DewpointF,PressureIn,WindDirection,WindDirectionDegrees,WindSpeedMPH,WindSpeedGustMPH,Humidity,HourlyPrecipIn,Conditions,Clouds,dailyrainin,SoftwareType,DateUTC
2013-05-03 00:32:00,60.8,24.7,30.05,N/A,-737280,0.0,-999.0,25,0.00,,,0.00,Wunderground v.1.15,2013-05-03 07:32:00,
2013-05-03 00:37:00,60.8,24.7,30.05,N/A,-737280,0.0,-999.0,25,0.00,,,0.00,Wunderground v.1.15,2013-05-03 07:37:00,
2013-05-03 00:42:00,60.8,24.7,30.05,N/A,-737280,0.0,-999.0,25,0.00,,,0.00,Wunderground v.1.15,2013-05-03 07:42:00,
2013-05-03 00:47:00,60.8,23.7,30.04,N/A,-737280,0.0,-999.0,24,0.00,,,0.00,Wunderground v.1.15,2013-05-03 07:47:00,
2013-05-03 00:52:00,60.8,23.7,30.04,N/A,-737280,0.0,-999.0,24,0.00,,,0.00,Wunderground v.1.15,2013-05-03 07:52:00,
2013-05-03 00:57:00,60.8,23.7,30.04,N/A,-737280,0.0,-999.0,24,0.00,,,0.00,Wunderground v.1.15,2013-05-03 07:57:00,
2013-05-03 01:02:00,60.8,23.7,30.04,N/A,-737280,0.0,-999.0,24,0.00,,,0.00,Wunderground v.1.15,2013-05-03 08:02:00,
2013-05-03 01:07:00,60.8,23.7,30.04,N/A,-737280,0.0,-999.0,24,0.00,,,0.00,Wunderground v.1.15,2013-05-03 08:07:00,
2013-05-03 01:12:00,60.8,23.7,30.04,N/A,-737280,0.0,-999.0,24,0.00,,,0.00,Wunderground v.1.15,2013-05-03 08:12:00,
2013-05-03 01:17:00,60.2,21.2,30.03,N/A,-737280,0.0,-999.0,22,0.00,,,0.00,Wunderground v.1.15,2013-05-03 08:17:00,
2013-05-03 01:22:00,60.2,21.2,30.03,N/A,-737280,0.0,-999.0,22,0.00,,,0.00,Wunderground v.1.15,2013-05-03 08:22:00,
2013-05-03 01:27:00,60.2,21.2,30.03,N/A,-737280,0.0,-999.0,22,0.00,,,0.00,Wunderground v.1.15,2013-05-03 08:27:00,
2013-05-03 01:32:00,60.2,21.2,30.03,N/A,-737280,0.0,-999.0,22,0.00,,,0.00,Wunderground v.1.15,2013-05-03 08:32:00,
2013-05-03 01:37:00,60.2,21.2,30.03,N/A,-737280,0.0,-999.0,22,0.00,,,0.00,Wunderground v.1.15,2013-05-03 08:37:00,
2013-05-03 01:42:00,60.2,21.2,30.03,N/A,-737280,0.0,-999.0,22,0.00,,,0.00,Wunderground v.1.15,2013-05-03 08:42:00,
2013-05-03 01:47:00,59.2,20.3,30.01,N/A,-737280,0.0,-999.0,22,0.00,,,0.00,Wunderground v.1.15,2013-05-03 08:47:00,
2013-05-03 01:52:00,59.2,20.3,30.01,N/A,-737280,0.0,-999.0,22,0.00,,,0.00,Wunderground v.1.15,2013-05-03 08:52:00,
2013-05-03 01:57:00,59.2,20.3,30.01,N/A,-737280,0.0,-999.0,22,0.00,,,0.00,Wunderground v.1.15,2013-05-03 08:57:00,
2013-05-03 02:02:00,59.2,20.3,30.01,N/A,-737280,0.0,-999.0,22,0.00,,,0.00,Wunderground v.1.15,2013-05-03 09:02:00,
2013-05-03 02:07:00,59.2,20.3,30.01,N/A,-737280,0.0,-999.0,22,0.00,,,0.00,Wunderground v.1.15,2013-05-03 09:07:00,
2013-05-03 02:12:00,59.2,20.3,30.01,N/A,-737280,0.0,-999.0,22,0.00,,,0.00,Wunderground v.1.15,2013-05-03 09:12:00,
2013-05-03 02:17:00,57.4,20.9,30.00,N/A,-737280,0.0,-999.0,24,0.00,,,0.00,Wunderground v.1.15,2013-05-03 09:17:00,
2013-05-03 02:22:00,57.4,20.9,30.00,N/A,-737280,0.0,-999.0,24,0.00,,,0.00,Wunderground v.1.15,2013-05-03 09:22:00,
2013-05-03 02:27:00,57.4,20.9,30.00,N/A,-737280,0.0,-999.0,24,0.00,,,0.00,Wunderground v.1.15,2013-05-03 09:27:00,
2013-05-03 02:32:00,57.4,20.9,30.00,N/A,-737280,0.0,-999.0,24,0.00,,,0.00,Wunderground v.1.15,2013-05-03 09:32:00,
2013-05-03 02:37:00,57.4,20.9,30.00,N/A,-737280,0.0,-999.0,24,0.00,,,0.00,Wunderground v.1.15,2013-05-03 09:37:00,
2013-05-03 02:42:00,57.4,20.9,30.00,N/A,-737280,0.0,-999.0,24,0.00,,,0.00,Wunderground v.1.15,2013-05-03 09:42:00,
2013-05-03 02:47:00,57.2,21.6,30.00,ESE,113,0.0,-999.0,25,0.00,,,0.00,Wunderground v.1.15,2013-05-03 09:47:00,
2013-05-03 02:52:00,57.2,21.6,30.00,ESE,113,0.0,-999.0,25,0.00,,,0.00,Wunderground v.1.15,2013-05-03 09:52:00,
2013-05-03 02:57:00,57.2,21.6,30.00,ESE,113,0.0,-999.0,25,0.00,,,0.00,Wunderground v.1.15,2013-05-03 09:57:00,
2013-05-03 03:02:00,57.2,21.6,30.00,ESE,113,0.0,-999.0,25,0.00,,,0.00,Wunderground v.1.15,2013-05-03 10:02:00,
2013-05-03 03:07:00,57.2,21.6,30.00,ESE,113,0.0,-999.0,25,0.00,,,0.00,Wunderground v.1.15,2013-05-03 10:07:00,
2013-05-03 03:12:00,57.2,21.6,30.00,ESE,113,0.0,-999.0,25,0.00,,,0.00,Wunderground v.1.15,2013-05-03 10:12:00,
2013-05-03 03:17:00,57.8,21.2,29.99,N/A,-737280,0.0,-999.0,24,0.00,,,0.00,Wunderground v.1.15,2013-05-03 10:17:00,
2013-05-03 03:22:00,57.8,21.2,29.99,N/A,-737280,0.0,-999.0,24,0.00,,,0.00,Wunderground v.1.15,2013-05-03 10:22:00,
2013-05-03 03:27:00,57.8,21.2,29.99,N/A,-737280,0.0,-999.0,24,0.00,,,0.00,Wunderground v.1.15,2013-05-03 10:27:00,
2013-05-03 03:32:00,57.8,21.2,29.99,N/A,-737280,0.0,-999.0,24,0.00,,,0.00,Wunderground v.1.15,2013-05-03 10:32:00,
2013-05-03 03:37:00,57.8,21.2,29.99,N/A,-737280,0.0,-999.0,24,0.00,,,0.00,Wunderground v.1.15,2013-05-03 10:37:00,
2013-05-03 03:42:00,57.8,21.2,29.99,N/A,-737280,0.0,-999.0,24,0.00,,,0.00,Wunderground v.1.15,2013-05-03 10:42:00,
2013-05-03 03:47:00,59.7,22.8,29.99,N/A,-737280,0.0,-999.0,24,0.00,,,0.00,Wunderground v.1.15,2013-05-03 10:47:00,
2013-05-03 03:52:00,59.7,22.8,29.99,N/A,-737280,0.0,-999.0,24,0.00,,,0.00,Wunderground v.1.15,2013-05-03 10:52:00,
2013-05-03 03:57:00,59.7,22.8,29.99,N/A,-737280,0.0,-999.0,24,0.00,,,0.00,Wunderground v.1.15,2013-05-03 10:57:00,
2013-05-03 04:02:00,59.7,22.8,29.99,N/A,-737280,0.0,-999.0,24,0.00,,,0.00,Wunderground v.1.15,2013-05-03 11:02:00,
2013-05-03 04:07:00,59.7,22.8,29.99,N/A,-737280,0.0,-999.0,24,0.00,,,0.00,Wunderground v.1.15,2013-05-03 11:07:00,
2013-05-03 04:12:00,59.7,22.8,29.99,N/A,-737280,0.0,-999.0,24,0.00,,,0.00,Wunderground v.1.15,2013-05-03 11:12:00,
2013-05-03 04:17:00,60.8,18.2,29.98,N/A,-737280,0.0,-999.0,19,0.00,,,0.00,Wunderground v.1.15,2013-05-03 11:17:00,
2013-05-03 04:22:00,60.8,18.2,29.98,N/A,-737280,0.0,-999.0,19,0.00,,,0.00,Wunderground v.1.15,2013-05-03 11:22:00,
2013-05-03 04:27:00,60.8,18.2,29.98,N/A,-737280,0.0,-999.0,19,0.00,,,0.00,Wunderground v.1.15,2013-05-03 11:27:00,
2013-05-03 04:32:00,60.8,18.2,29.98,N/A,-737280,0.0,-999.0,19,0.00,,,0.00,Wunderground v.1.15,2013-05-03 11:32:00,
2013-05-03 04:37:00,60.8,18.2,29.98,N/A,-737280,0.0,-999.0,19,0.00,,,0.00,Wunderground v.1.15,2013-05-03 11:37:00,
2013-05-03 04:42:00,60.8,18.2,29.98,N/A,-737280,0.0,-999.0,19,0.00,,,0.00,Wunderground v.1.15,2013-05-03 11:42:00,
2013-05-03 04:47:00,60.5,16.7,29.97,N/A,-737280,0.0,-999.0,18,0.00,,,0.00,Wunderground v.1.15,2013-05-03 11:47:00,
2013-05-03 04:52:00,60.5,16.7,29.97,N/A,-737280,0.0,-999.0,18,0.00,,,0.00,Wunderground v.1.15,2013-05-03 11:52:00,
2013-05-03 04:57:00,60.5,16.7,29.97,N/A,-737280,0.0,-999.0,18,0.00,,,0.00,Wunderground v.1.15,2013-05-03 11:57:00,
2013-05-03 05:02:00,60.5,16.7,29.97,N/A,-737280,0.0,-999.0,18,0.00,,,0.00,Wunderground v.1.15,2013-05-03 12:02:00,
2013-05-03 05:07:00,60.5,16.7,29.97,N/A,-737280,0.0,-999.0,18,0.00,,,0.00,Wunderground v.1.15,2013-05-03 12:07:00,
2013-05-03 05:12:00,60.5,16.7,29.97,N/A,-737280,0.0,-999.0,18,0.00,,,0.00,Wunderground v.1.15,2013-05-03 12:12:00,
2013-05-03 05:17:00,61.0,15.8,29.97,N/A,-737280,0.0,-999.0,17,0.00,,,0.00,Wunderground v.1.15,2013-05-03 12:17:00,
2013-05-03 05:22:00,61.0,15.8,29.97,N/A,-737280,0.0,-999.0,17,0.00,,,0.00,Wunderground v.1.15,2013-05-03 12:22:00,
2013-05-03 05:33:00,61.0,15.8,29.97,N/A,-737280,0.0,-999.0,17,0.00,,,0.00,Wunderground v.1.15,2013-05-03 12:33:00,
2013-05-03 05:38:00,60.9,15.7,29.97,ESE,109,0.0,0.0,17,0.00,,,0.00,Wunderground v.1.15,2013-05-03 12:38:00,
2013-05-03 05:44:00,61.2,17.3,29.96,ESE,109,0.0,0.0,18,0.00,,,0.00,Wunderground v.1.15,2013-05-03 12:44:00,
2013-05-03 05:50:00,60.0,16.3,29.97,ESE,108,0.0,0.0,18,0.00,,,0.00,Wunderground v.1.15,2013-05-03 12:50:00,
2013-05-03 05:56:00,59.5,15.9,29.97,ESE,109,0.0,0.0,18,0.00,,,0.00,Wunderground v.1.15,2013-05-03 12:56:00,
2013-05-03 06:02:00,59.2,16.9,29.97,ESE,108,0.0,0.0,19,0.00,,,0.00,Wunderground v.1.15,2013-05-03 13:02:00,
2013-05-03 06:08:00,58.3,17.3,29.97,ESE,108,0.0,0.0,20,0.00,,,0.00,Wunderground v.1.15,2013-05-03 13:08:00,
2013-05-03 06:14:00,57.6,19.0,29.97,ESE,108,0.0,0.0,22,0.00,,,0.00,Wunderground v.1.15,2013-05-03 13:14:00,
2013-05-03 06:20:00,57.0,17.4,29.97,ESE,108,0.0,0.0,21,0.00,,,0.00,Wunderground v.1.15,2013-05-03 13:20:00,
2013-05-03 06:26:00,56.7,17.1,29.96,ESE,108,0.0,0.0,21,0.00,,,0.00,Wunderground v.1.15,2013-05-03 13:26:00,
2013-05-03 06:32:00,57.0,18.5,29.97,ESE,109,0.0,0.0,22,0.00,,,0.00,Wunderground v.1.15,2013-05-03 13:32:00,
2013-05-03 06:38:00,57.5,19.9,29.97,ESE,108,0.0,0.0,23,0.00,,,0.00,Wunderground v.1.15,2013-05-03 13:38:00,
2013-05-03 06:44:00,58.0,20.4,29.96,SE,135,0.0,1.0,23,0.00,,,0.00,Wunderground v.1.15,2013-05-03 13:44:00,
2013-05-03 06:50:00,58.6,21.9,29.97,SSW,211,0.0,0.0,24,0.00,,,0.00,Wunderground v.1.15,2013-05-03 13:50:00,
2013-05-03 06:56:00,58.8,23.0,29.97,SE,143,0.0,0.0,25,0.00,,,0.00,Wunderground v.1.15,2013-05-03 13:56:00,
2013-05-03 07:02:00,59.1,24.2,29.97,SE,129,0.0,0.0,26,0.00,,,0.00,Wunderground v.1.15,2013-05-03 14:02:00,
2013-05-03 07:08:00,59.5,23.6,29.97,SE,129,0.0,0.0,25,0.00,,,0.00,Wunderground v.1.15,2013-05-03 14:08:00,
2013-05-03 07:14:00,59.9,26.7,29.97,NNE,26,0.0,0.0,28,0.00,,,0.00,Wunderground v.1.15,2013-05-03 14:14:00,
2013-05-03 07:20:00,60.6,27.3,29.97,NNE,15,0.0,0.0,28,0.00,,,0.00,Wunderground v.1.15,2013-05-03 14:20:00,
2013-05-03 07:26:00,61.5,28.9,29.97,NNE,15,0.0,0.0,29,0.00,,,0.00,Wunderground v.1.15,2013-05-03 14:26:00,
2013-05-03 07:32:00,62.5,28.0,29.96,NNE,16,0.0,0.0,27,0.00,,,0.00,Wunderground v.1.15,2013-05-03 14:32:00,
2013-05-03 07:38:00,64.3,30.5,29.96,NNE,16,0.0,0.0,28,0.00,,,0.00,Wunderground v.1.15,2013-05-03 14:38:00,
2013-05-03 07:44:00,66.3,29.4,29.96,West,262,0.0,0.0,25,0.00,,,0.00,Wunderground v.1.15,2013-05-03 14:44:00,
2013-05-03 07:50:00,68.7,32.4,29.96,WNW,303,0.0,0.0,26,0.00,,,0.00,Wunderground v.1.15,2013-05-03 14:50:00,
2013-05-03 07:56:00,70.5,27.5,29.96,SE,146,0.0,0.0,20,0.00,,,0.00,Wunderground v.1.15,2013-05-03 14:56:00,
2013-05-03 08:02:00,74.1,16.2,29.96,ENE,76,0.0,1.0,11,0.00,,,0.00,Wunderground v.1.15,2013-05-03 15:02:00,
2013-05-03 08:08:00,77.4,11.4,29.96,East,98,1.0,2.0,8,0.00,,,0.00,Wunderground v.1.15,2013-05-03 15:08:00,
2013-05-03 08:14:00,79.0,12.6,29.96,NE,34,2.0,2.0,8,0.00,,,0.00,Wunderground v.1.15,2013-05-03 15:14:00,
2013-05-03 08:20:00,80.1,13.4,29.95,ENE,68,2.0,2.0,8,0.00,,,0.00,Wunderground v.1.15,2013-05-03 15:20:00,
2013-05-03 08:26:00,81.0,11.1,29.95,ESE,108,1.0,2.0,7,0.00,,,0.00,Wunderground v.1.15,2013-05-03 15:26:00,
2013-05-03 08:32:00,81.5,11.4,29.95,East,100,1.0,1.0,7,0.00,,,0.00,Wunderground v.1.15,2013-05-03 15:32:00,
2013-05-03 08:38:00,81.8,14.7,29.95,ENE,77,1.0,1.0,8,0.00,,,0.00,Wunderground v.1.15,2013-05-03 15:38:00,
2013-05-03 08:44:00,82.1,8.4,29.95,North,5,1.0,2.0,6,0.00,,,0.00,Wunderground v.1.15,2013-05-03 15:44:00,
2013-05-03 08:50:00,82.5,15.2,29.95,NW,326,1.0,3.0,8,0.00,,,0.00,Wunderground v.1.15,2013-05-03 15:50:00,
2013-05-03 08:56:00,82.8,18.2,29.95,North,8,1.0,4.0,9,0.00,,,0.00,Wunderground v.1.15,2013-05-03 15:56:00,
2013-05-03 09:02:00,82.8,12.4,29.95,East,86,2.0,3.0,7,0.00,,,0.00,Wunderground v.1.15,2013-05-03 16:02:00,
2013-05-03 09:08:00,83.3,18.5,29.95,NW,307,2.0,3.0,9,0.00,,,0.00,Wunderground v.1.15,2013-05-03 16:08:00,
2013-05-03 09:14:00,83.7,13.0,29.95,East,91,1.0,3.0,7,0.00,,,0.00,Wunderground v.1.15,2013-05-03 16:14:00,
2013-05-03 09:20:00,84.1,16.4,29.95,NE,34,2.0,4.0,8,0.00,,,0.00,Wunderground v.1.15,2013-05-03 16:20:00,
2013-05-03 09:26:00,84.3,16.6,29.94,WSW,252,2.0,4.0,8,0.00,,,0.00,Wunderground v.1.15,2013-05-03 16:26:00,
2013-05-03 09:32:00,84.8,13.9,29.94,NW,316,2.0,4.0,7,0.00,,,0.00,Wunderground v.1.15,2013-05-03 16:32:00,
2013-05-03 09:38:00,84.8,16.9,29.94,NNE,26,3.0,6.0,8,0.00,,,0.00,Wunderground v.1.15,2013-05-03 16:38:00,
2013-05-03 09:44:00,85.0,14.0,29.94,ENE,73,3.0,6.0,7,0.00,,,0.00,Wunderground v.1.15,2013-05-03 16:44:00,
2013-05-03 09:50:00,85.7,17.6,29.94,NNW,333,2.0,6.0,8,0.00,,,0.00,Wunderground v.1.15,2013-05-03 16:50:00,
2013-05-03 09:56:00,86.2,18.0,29.94,NNW,340,2.0,6.0,8,0.00,,,0.00,Wunderground v.1.15,2013-05-03 16:56:00,
2013-05-03 10:02:00,86.5,15.1,29.94,WNW,300,2.0,2.0,7,0.00,,,0.00,Wunderground v.1.15,2013-05-03 17:02:00,
2013-05-03 10:08:00,86.8,11.8,29.93,NNE,29,2.0,2.0,6,0.00,,,0.00,Wunderground v.1.15,2013-05-03 17:08:00,
2013-05-03 10:14:00,87.1,15.5,29.94,NNW,348,2.0,5.0,7,0.00,,,0.00,Wunderground v.1.15,2013-05-03 17:14:00,
2013-05-03 10:20:00,87.4,15.8,29.93,NNE,15,2.0,5.0,7,0.00,,,0.00,Wunderground v.1.15,2013-05-03 17:20:00,
2013-05-03 10:26:00,87.3,15.7,29.93,NNW,340,3.0,8.0,7,0.00,,,0.00,Wunderground v.1.15,2013-05-03 17:26:00,
2013-05-03 10:32:00,87.6,12.4,29.93,NNE,13,4.0,6.0,6,0.00,,,0.00,Wunderground v.1.15,2013-05-03 17:32:00,
2013-05-03 10:38:00,88.2,16.3,29.93,NNW,328,3.0,7.0,7,0.00,,,0.00,Wunderground v.1.15,2013-05-03 17:38:00,
2013-05-03 10:44:00,88.9,20.0,29.93,NNW,339,2.0,7.0,8,0.00,,,0.00,Wunderground v.1.15,2013-05-03 17:44:00,
2013-05-03 10:50:00,88.9,20.0,29.93,NNW,346,2.0,2.0,8,0.00,,,0.00,Wunderground v.1.15,2013-05-03 17:50:00,
2013-05-03 10:56:00,89.2,13.5,29.93,NNE,20,2.0,7.0,6,0.00,,,0.00,Wunderground v.1.15,2013-05-03 17:56:00,
2013-05-03 11:02:00,89.3,17.1,29.93,NNE,15,3.0,5.0,7,0.00,,,0.00,Wunderground v.1.15,2013-05-03 18:02:00,
2013-05-03 11:08:00,90.0,14.1,29.92,NNE,16,2.0,5.0,6,0.00,,,0.00,Wunderground v.1.15,2013-05-03 18:08:00,
2013-05-03 11:14:00,90.0,20.8,29.92,North,4,2.0,5.0,8,0.00,,,0.00,Wunderground v.1.15,2013-05-03 18:14:00,
2013-05-03 11:20:00,90.6,14.5,29.92,North,3,2.0,4.0,6,0.00,,,0.00,Wunderground v.1.15,2013-05-03 18:20:00,
2013-05-03 11:26:00,89.9,9.9,29.92,NNE,33,2.0,4.0,5,0.00,,,0.00,Wunderground v.1.15,2013-05-03 18:26:00,
2013-05-03 11:32:00,90.4,17.9,29.92,NNE,18,2.0,8.0,7,0.00,,,0.00,Wunderground v.1.15,2013-05-03 18:32:00,
2013-05-03 11:38:00,90.9,18.3,29.91,NNE,20,2.0,8.0,7,0.00,,,0.00,Wunderground v.1.15,2013-05-03 18:38:00,
2013-05-03 11:44:00,90.9,5.7,29.91,NNE,17,2.0,8.0,4,0.00,,,0.00,Wunderground v.1.15,2013-05-03 18:44:00,
2013-05-03 11:50:00,90.0,5.0,29.91,NNW,331,3.0,8.0,4,0.00,,,0.00,Wunderground v.1.15,2013-05-03 18:50:00,
2013-05-03 11:56:00,90.4,10.3,29.91,SSE,153,3.0,8.0,5,0.00,,,0.00,Wunderground v.1.15,2013-05-03 18:56:00,
2013-05-03 12:02:00,89.7,9.8,29.91,West,259,2.0,4.0,5,0.00,,,0.00,Wunderground v.1.15,2013-05-03 19:02:00,
2013-05-03 12:08:00,89.3,13.6,29.91,WNW,302,2.0,4.0,6,0.00,,,0.00,Wunderground v.1.15,2013-05-03 19:08:00,
2013-05-03 12:14:00,88.2,8.7,29.91,WSW,246,3.0,4.0,5,0.00,,,0.00,Wunderground v.1.15,2013-05-03 19:14:00,
2013-05-03 12:20:00,87.5,12.3,29.90,WSW,246,4.0,5.0,6,0.00,,,0.00,Wunderground v.1.15,2013-05-03 19:20:00,
2013-05-03 12:26:00,86.9,11.9,29.90,SW,215,4.0,5.0,6,0.00,,,0.00,Wunderground v.1.15,2013-05-03 19:26:00,
2013-05-03 12:32:00,86.4,11.5,29.90,West,274,4.0,7.0,6,0.00,,,0.00,Wunderground v.1.15,2013-05-03 19:32:00,
2013-05-03 12:38:00,85.7,14.5,29.89,SW,225,4.0,7.0,7,0.00,,,0.00,Wunderground v.1.15,2013-05-03 19:38:00,
2013-05-03 12:44:00,85.2,14.1,29.90,WSW,245,4.0,7.0,7,0.00,,,0.00,Wunderground v.1.15,2013-05-03 19:44:00,
2013-05-03 12:50:00,85.1,10.6,29.89,WSW,252,4.0,7.0,6,0.00,,,0.00,Wunderground v.1.15,2013-05-03 19:50:00,
2013-05-03 12:56:00,84.9,10.4,29.89,WSW,253,5.0,7.0,6,0.00,,,0.00,Wunderground v.1.15,2013-05-03 19:56:00,
2013-05-03 13:02:00,84.6,10.2,29.89,SW,219,6.0,7.0,6,0.00,,,0.00,Wunderground v.1.15,2013-05-03 20:02:00,
2013-05-03 13:08:00,84.5,13.6,29.88,WSW,256,6.0,8.0,7,0.00,,,0.00,Wunderground v.1.15,2013-05-03 20:08:00,
2013-05-03 13:14:00,84.6,13.7,29.88,South,183,5.0,5.0,7,0.00,,,0.00,Wunderground v.1.15,2013-05-03 20:14:00,
2013-05-03 13:20:00,84.4,10.1,29.88,West,278,5.0,5.0,6,0.00,,,0.00,Wunderground v.1.15,2013-05-03 20:20:00,
2013-05-03 13:26:00,84.1,13.3,29.88,SW,214,5.0,6.0,7,0.00,,,0.00,Wunderground v.1.15,2013-05-03 20:26:00,
2013-05-03 13:32:00,83.9,13.2,29.88,SW,235,4.0,9.0,7,0.00,,,0.00,Wunderground v.1.15,2013-05-03 20:32:00,
2013-05-03 13:38:00,84.0,16.3,29.88,SW,236,4.0,9.0,8,0.00,,,0.00,Wunderground v.1.15,2013-05-03 20:38:00,
2013-05-03 13:44:00,84.0,16.3,29.88,West,270,4.0,9.0,8,0.00,,,0.00,Wunderground v.1.15,2013-05-03 20:44:00,
2013-05-03 13:50:00,83.9,13.2,29.88,SW,236,5.0,9.0,7,0.00,,,0.00,Wunderground v.1.15,2013-05-03 20:50:00,
2013-05-03 13:56:00,83.5,21.2,29.87,SW,226,5.0,9.0,10,0.00,,,0.00,Wunderground v.1.15,2013-05-03 20:56:00,
2013-05-03 14:02:00,82.1,29.8,29.87,South,181,4.0,4.0,15,0.00,,,0.00,Wunderground v.1.15,2013-05-03 21:02:00,
2013-05-03 14:08:00,80.6,27.0,29.87,SW,224,4.0,7.0,14,0.00,,,0.00,Wunderground v.1.15,2013-05-03 21:08:00,
2013-05-03 14:14:00,79.5,27.8,29.87,South,191,4.0,4.0,15,0.00,,,0.00,Wunderground v.1.15,2013-05-03 21:14:00,
2013-05-03 14:20:00,78.8,25.5,29.87,WSW,246,4.0,7.0,14,0.00,,,0.00,Wunderground v.1.15,2013-05-03 21:20:00,
2013-05-03 14:26:00,78.4,26.9,29.87,SW,231,5.0,7.0,15,0.00,,,0.00,Wunderground v.1.15,2013-05-03 21:26:00,
2013-05-03 14:32:00,78.2,26.7,29.87,SW,225,4.0,6.0,15,0.00,,,0.00,Wunderground v.1.15,2013-05-03 21:32:00,
2013-05-03 14:38:00,78.0,26.6,29.87,SW,228,4.0,11.0,15,0.00,,,0.00,Wunderground v.1.15,2013-05-03 21:38:00,
2013-05-03 14:44:00,77.9,26.5,29.86,SW,214,4.0,11.0,15,0.00,,,0.00,Wunderground v.1.15,2013-05-03 21:44:00,
2013-05-03 14:50:00,77.9,24.8,29.86,SW,231,4.0,11.0,14,0.00,,,0.00,Wunderground v.1.15,2013-05-03 21:50:00,
2013-05-03 14:56:00,77.9,24.8,29.86,SW,232,4.0,11.0,14,0.00,,,0.00,Wunderground v.1.15,2013-05-03 21:56:00,
2013-05-03 15:02:00,78.2,23.3,29.86,SW,228,4.0,4.0,13,0.00,,,0.00,Wunderground v.1.15,2013-05-03 22:02:00,
2013-05-03 15:08:00,78.4,19.5,29.86,SW,216,4.0,4.0,11,0.00,,,0.00,Wunderground v.1.15,2013-05-03 22:08:00,
2013-05-03 15:14:00,78.8,19.8,29.86,WSW,249,4.0,4.0,11,0.00,,,0.00,Wunderground v.1.15,2013-05-03 22:14:00,
2013-05-03 15:20:00,79.2,17.9,29.86,SW,222,3.0,4.0,10,0.00,,,0.00,Wunderground v.1.15,2013-05-03 22:20:00,
2013-05-03 15:26:00,79.6,18.2,29.85,WSW,237,4.0,6.0,10,0.00,,,0.00,Wunderground v.1.15,2013-05-03 22:26:00,
2013-05-03 15:32:00,79.8,15.9,29.85,SW,231,4.0,12.0,9,0.00,,,0.00,Wunderground v.1.15,2013-05-03 22:32:00,
2013-05-03 15:38:00,80.2,13.5,29.85,SW,214,4.0,12.0,8,0.00,,,0.00,Wunderground v.1.15,2013-05-03 22:38:00,
2013-05-03 15:44:00,80.4,13.7,29.85,SW,223,4.0,12.0,8,0.00,,,0.00,Wunderground v.1.15,2013-05-03 22:44:00,
2013-05-03 15:50:00,80.4,13.7,29.85,SSW,211,4.0,12.0,8,0.00,,,0.00,Wunderground v.1.15,2013-05-03 22:50:00,
2013-05-03 15:56:00,80.3,13.6,29.85,WSW,249,4.0,12.0,8,0.00,,,0.00,Wunderground v.1.15,2013-05-03 22:56:00,
2013-05-03 16:02:00,80.5,13.7,29.85,WSW,242,4.0,5.0,8,0.00,,,0.00,Wunderground v.1.15,2013-05-03 23:02:00,
2013-05-03 16:08:00,80.8,16.7,29.84,West,263,4.0,5.0,9,0.00,,,0.00,Wunderground v.1.15,2013-05-03 23:08:00,
2013-05-03 16:14:00,81.2,17.0,29.84,WSW,237,3.0,5.0,9,0.00,,,0.00,Wunderground v.1.15,2013-05-03 23:14:00,
2013-05-03 16:20:00,81.5,17.2,29.84,SW,235,3.0,4.0,9,0.00,,,0.00,Wunderground v.1.15,2013-05-03 23:20:00,
2013-05-03 16:26:00,81.9,17.5,29.83,WSW,256,3.0,4.0,9,0.00,,,0.00,Wunderground v.1.15,2013-05-03 23:26:00,
2013-05-03 16:32:00,82.2,17.7,29.83,SW,224,3.0,9.0,9,0.00,,,0.00,Wunderground v.1.15,2013-05-03 23:32:00,
2013-05-03 16:38:00,82.1,17.6,29.83,SW,230,3.0,9.0,9,0.00,,,0.00,Wunderground v.1.15,2013-05-03 23:38:00,
2013-05-03 16:44:00,82.0,17.6,29.83,WSW,246,3.0,9.0,9,0.00,,,0.00,Wunderground v.1.15,2013-05-03 23:44:00,
2013-05-03 16:50:00,81.6,17.3,29.83,WSW,240,3.0,3.0,9,0.00,,,0.00,Wunderground v.1.15,2013-05-03 23:50:00,
2013-05-03 16:56:00,81.0,19.3,29.83,WSW,243,4.0,9.0,10,0.00,,,0.00,Wunderground v.1.15,2013-05-03 23:56:00,
2013-05-03 17:02:00,80.6,21.2,29.83,SW,217,3.0,5.0,11,0.00,,,0.00,Wunderground v.1.15,2013-05-04 00:02:00,
2013-05-03 17:08:00,80.7,23.3,29.83,West,269,3.0,5.0,12,0.00,,,0.00,Wunderground v.1.15,2013-05-04 00:08:00,
2013-05-03 17:14:00,80.8,23.4,29.83,SW,230,3.0,4.0,12,0.00,,,0.00,Wunderground v.1.15,2013-05-04 00:14:00,
2013-05-03 17:20:00,80.5,21.1,29.83,WSW,249,3.0,3.0,11,0.00,,,0.00,Wunderground v.1.15,2013-05-04 00:20:00,
2013-05-03 17:26:00,80.0,24.7,29.83,SW,233,4.0,5.0,13,0.00,,,0.00,Wunderground v.1.15,2013-05-04 00:26:00,
2013-05-03 17:32:00,79.6,26.2,29.83,SW,231,3.0,6.0,14,0.00,,,0.00,Wunderground v.1.15,2013-05-04 00:32:00,
2013-05-03 17:38:00,79.1,27.5,29.82,WSW,243,3.0,8.0,15,0.00,,,0.00,Wunderground v.1.15,2013-05-04 00:38:00,
2013-05-03 17:44:00,78.8,30.3,29.82,WNW,284,3.0,8.0,17,0.00,,,0.00,Wunderground v.1.15,2013-05-04 00:44:00,
2013-05-03 17:50:00,78.5,31.4,29.82,WSW,252,3.0,3.0,18,0.00,,,0.00,Wunderground v.1.15,2013-05-04 00:50:00,
2013-05-03 17:56:00,78.2,31.2,29.82,SW,233,3.0,8.0,18,0.00,,,0.00,Wunderground v.1.15,2013-05-04 00:56:00,
2013-05-03 18:02:00,78.0,32.4,29.81,SW,236,3.0,3.0,19,0.00,,,0.00,Wunderground v.1.15,2013-05-04 01:02:00,
2013-05-03 18:08:00,77.9,32.3,29.81,WSW,243,3.0,4.0,19,0.00,,,0.00,Wunderground v.1.15,2013-05-04 01:08:00,
2013-05-03 18:14:00,77.8,32.2,29.81,SW,236,2.0,5.0,19,0.00,,,0.00,Wunderground v.1.15,2013-05-04 01:14:00,
2013-05-03 18:20:00,77.6,33.3,29.81,SW,231,2.0,2.0,20,0.00,,,0.00,Wunderground v.1.15,2013-05-04 01:20:00,
2013-05-03 18:26:00,77.4,33.2,29.81,WSW,241,2.0,3.0,20,0.00,,,0.00,Wunderground v.1.15,2013-05-04 01:26:00,
2013-05-03 18:32:00,77.2,34.2,29.81,SW,227,2.0,8.0,21,0.00,,,0.00,Wunderground v.1.15,2013-05-04 01:32:00,